Weather in Rotterdam

Netherlands     51°54′47″N   4°28′03″E
temp.,
°C
wind,
m/s
gust,
m/s
humid.,
%
clouds,
%
prec.,
mm/h
press.,
hPa
HPBL,
m
19 january, tue
tue1901:00+6sw71483100 0.4 1014784
04:00+5ssw71589100 3.0 1010757
07:00+6ssw91891100 9.5 10051115
10:00+10wsw112091100 5.3 10031068
13:00+11wsw101885100 5.8 10041117
16:00+10wsw101782100 0.1 10041117
19:00+10sw81580100 0.2 10041086
22:00+9ssw91680100 0.0 10031010
20 january, wed
wed2001:00+8ssw91779100 0.2 1001937
04:00+9ssw91982100 0.5 9981108
07:00+9ssw91879100 0.9 9971067
10:00+8ssw91777100 0.2 996962
13:00+8ssw91778100 0.5 9961116
16:00+9ssw81663100 0.0 993911
19:00+7ssw81765100 0.0 992852
22:00+9ssw91963100 0.0 9901127
21 january, thu
thu2101:00+9s9217290 0.0 9861326
04:00+10s122468100 0.0 9811645
07:00+7sw112059100 2.0 9831818
10:00+7sw8195933 0.0 9871761
13:00+9sw11196017 0.1 9881965
16:00+8ssw10186590 0.2 9871642
19:00+7ssw8167093 0.3 9861275
22:00+6ssw61181100 0.1 983803
22 january, fri
fri2201:00+5sw41083100 0.4 982744
04:00+5w61175100 0.3 985930
07:00+5wsw7137080 0.3 9881064
10:00+5wsw7136681 0.1 9901463
13:00+7wsw9146281 0.1 9931548
16:00+6wsw7116629 0.0 9951237
19:00+4wsw497431 0.0 997664
22:00+4ssw378085 0.0 996256
23 january, sat
sat2301:00+3ssw258492 0.1 996209
04:00+3s3592100 0.1 994232
07:00+3se0194100 0.6 994100
10:00+3s0195100 1.0 994100
13:00+5w1279100 1.1 995454
16:00+5nnw1276100 0.5 994482
19:00+3e0179100 1.0 993114
22:00+2s118698 0.0 99440